owner,sensor,date,latitude,longitude,air_pressure(mBar),qcFlag 
TABS,ioos:station:wmo:42046:1,2009-12-01T00:00:00Z,27.8903,-94.0367,1016.21,11111222 
TABS,ioos:station:wmo:42046:1,2009-12-01T00:30:00Z,27.8903,-94.0367,1016.14,11111222 
TABS,ioos:station:wmo:42046:1,2009-12-01T01:00:00Z,27.8903,-94.0367,1016.13,11111222 
TABS,ioos:station:wmo:42046:1,2009-12-01T01:30:00Z,27.8903,-94.0367,1015.31,11111222 
TABS,ioos:station:wmo:42046:1,2009-12-01T02:00:00Z,27.8903,-94.0367,1015.34,11111222 
TABS,ioos:station:wmo:42046:1,2009-12-01T02:30:00Z,27.8903,-94.0367,1015.91,11111222 
TABS,ioos:station:wmo:42046:1,2009-12-01T03:00:00Z,27.8903,-94.0367,1016.04,11111222 
TABS,ioos:station:wmo:42046:1,2009-12-01T03:30:00Z,27.8903,-94.0367,1015.45,11111222 
TABS,ioos:station:wmo:42046:1,2009-12-01T04:00:00Z,27.8903,-94.0367,1014.93,11111222 
TABS,ioos:station:wmo:42046:1,2009-12-01T04:30:00Z,27.8903,-94.0367,1015.28,11111222 
TABS,ioos:station:wmo:42046:1,2009-12-01T05:00:00Z,27.8903,-94.0367,1014.7,11111222 
TABS,ioos:station:wmo:42046:1,2009-12-01T05:30:00Z,27.8903,-94.0367,1015.92,11111222 
TABS,ioos:station:wmo:42046:1,2009-12-01T06:00:00Z,27.8903,-94.0367,1014.88,11111222 
TABS,ioos:station:wmo:42046:1,2009-12-01T06:30:00Z,27.8903,-94.0367,1014.33,11111222 
TABS,ioos:station:wmo:42046:1,2009-12-01T07:00:00Z,27.8903,-94.0367,1013.45,11111222 
TABS,ioos:station:wmo:42046:1,2009-12-01T07:30:00Z,27.8903,-94.0367,1012.66,11111222 
TABS,ioos:station:wmo:42046:1,2009-12-01T08:00:00Z,27.8903,-94.0367,1012.46,11111222 
TABS,ioos:station:wmo:42046:1,2009-12-01T08:30:00Z,27.8903,-94.0367,1012.41,11111222 
TABS,ioos:station:wmo:42046:1,2009-12-01T09:00:00Z,27.8903,-94.0367,1012.86,11111222 
TABS,ioos:station:wmo:42046:1,2009-12-01T09:30:00Z,27.8903,-94.0367,1012.65,11111222 
TABS,ioos:station:wmo:42046:1,2009-12-01T10:00:00Z,27.8903,-94.0367,1011.56,11111222 
TABS,ioos:station:wmo:42046:1,2009-12-01T10:30:00Z,27.8903,-94.0367,1011.7,11111222 
TABS,ioos:station:wmo:42046:1,2009-12-01T11:00:00Z,27.8903,-94.0367,1011.49,11111222 
TABS,ioos:station:wmo:42046:1,2009-12-01T11:30:00Z,27.8903,-94.0367,1011.35,11111222 
TABS,ioos:station:wmo:42046:1,2009-12-01T12:00:00Z,27.8903,-94.0367,1011.68,11111222 
TABS,ioos:station:wmo:42046:1,2009-12-01T12:30:00Z,27.8903,-94.0367,1010.82,11111222 
TABS,ioos:station:wmo:42046:1,2009-12-01T13:00:00Z,27.8903,-94.0367,1010.03,11111222 
TABS,ioos:station:wmo:42046:1,2009-12-01T13:30:00Z,27.8903,-94.0367,1009.58,11111222 
TABS,ioos:station:wmo:42046:1,2009-12-01T14:00:00Z,27.8903,-94.0367,1009.38,11111222 
TABS,ioos:station:wmo:42046:1,2009-12-01T14:30:00Z,27.8903,-94.0367,1009.69,11111222 
TABS,ioos:station:wmo:42046:1,2009-12-01T15:00:00Z,27.8903,-94.0367,1010.28,11111222 
TABS,ioos:station:wmo:42046:1,2009-12-01T15:30:00Z,27.8903,-94.0367,1009.59,11111222 
TABS,ioos:station:wmo:42046:1,2009-12-01T16:00:00Z,27.8903,-94.0367,1008.41,11111222 
TABS,ioos:station:wmo:42046:1,2009-12-01T16:30:00Z,27.8903,-94.0367,1007.89,11111222 
TABS,ioos:station:wmo:42046:1,2009-12-01T17:00:00Z,27.8903,-94.0367,1007.78,11111222 
TABS,ioos:station:wmo:42046:1,2009-12-01T17:30:00Z,27.8903,-94.0367,1008.53,11111222 
TABS,ioos:station:wmo:42046:1,2009-12-01T18:00:00Z,27.8903,-94.0367,1007.97,11111222 
TABS,ioos:station:wmo:42046:1,2009-12-01T18:30:00Z,27.8903,-94.0367,1006.21,11111222 
TABS,ioos:station:wmo:42046:1,2009-12-01T19:00:00Z,27.8903,-94.0367,1005.82,11111222 
TABS,ioos:station:wmo:42046:1,2009-12-01T19:30:00Z,27.8903,-94.0367,1003.87,11111222 
TABS,ioos:station:wmo:42046:1,2009-12-01T20:00:00Z,27.8903,-94.0367,1002.49,11111222 
TABS,ioos:station:wmo:42046:1,2009-12-01T20:30:00Z,27.8903,-94.0367,1002.2,11111222 
TABS,ioos:station:wmo:42046:1,2009-12-01T21:00:00Z,27.8903,-94.0367,1002.6,11111222 
TABS,ioos:station:wmo:42046:1,2009-12-01T21:30:00Z,27.8903,-94.0367,1002.37,11111222 
TABS,ioos:station:wmo:42046:1,2009-12-01T22:00:00Z,27.8903,-94.0367,1002.1,11111222 
TABS,ioos:station:wmo:42046:1,2009-12-01T22:30:00Z,27.8903,-94.0367,1001.64,11111222 
TABS,ioos:station:wmo:42046:1,2009-12-01T23:00:00Z,27.8903,-94.0367,1001.61,11111222 
TABS,ioos:station:wmo:42046:1,2009-12-01T23:30:00Z,27.8903,-94.0367,1001.43,11111222 
TABS,ioos:station:wmo:42046:1,2009-12-02T00:00:00Z,27.8903,-94.0367,1001.49,11111222 
TABS,ioos:station:wmo:42046:1,2009-12-02T00:30:00Z,27.8903,-94.0367,1001.31,11111222 
TABS,ioos:station:wmo:42046:1,2009-12-02T01:00:00Z,27.8903,-94.0367,1000.42,11111222 
TABS,ioos:station:wmo:42046:1,2009-12-02T01:30:00Z,27.8903,-94.0367,1000.56,11111222 
TABS,ioos:station:wmo:42046:1,2009-12-02T02:00:00Z,27.8903,-94.0367,999.17,11111222 
TABS,ioos:station:wmo:42046:1,2009-12-02T02:30:00Z,27.8903,-94.0367,999.52,11111222 
TABS,ioos:station:wmo:42046:1,2009-12-02T03:00:00Z,27.8903,-94.0367,1003.89,11111222 
TABS,ioos:station:wmo:42046:1,2009-12-02T03:30:00Z,27.8903,-94.0367,1003.97,11111222 
TABS,ioos:station:wmo:42046:1,2009-12-02T04:00:00Z,27.8903,-94.0367,1004.17,11111222 
TABS,ioos:station:wmo:42046:1,2009-12-02T04:30:00Z,27.8903,-94.0367,1003.1,11111222 
TABS,ioos:station:wmo:42046:1,2009-12-02T05:00:00Z,27.8903,-94.0367,1002.78,11111222 
TABS,ioos:station:wmo:42046:1,2009-12-02T05:30:00Z,27.8903,-94.0367,1003.44,11111222 
TABS,ioos:station:wmo:42046:1,2009-12-02T06:00:00Z,27.8903,-94.0367,1002.65,11111222 
TABS,ioos:station:wmo:42046:1,2009-12-02T06:30:00Z,27.8903,-94.0367,1003.67,11111222 
TABS,ioos:station:wmo:42046:1,2009-12-02T07:00:00Z,27.8903,-94.0367,1003.16,11111222 
TABS,ioos:station:wmo:42046:1,2009-12-02T07:30:00Z,27.8903,-94.0367,1002.94,11111222 
TABS,ioos:station:wmo:42046:1,2009-12-02T08:00:00Z,27.8903,-94.0367,1003.46,11111222 
TABS,ioos:station:wmo:42046:1,2009-12-02T08:30:00Z,27.8903,-94.0367,1004.0,11111222 
TABS,ioos:station:wmo:42046:1,2009-12-02T09:00:00Z,27.8903,-94.0367,1003.57,11111222 
TABS,ioos:station:wmo:42046:1,2009-12-02T09:30:00Z,27.8903,-94.0367,1003.58,11111222 
TABS,ioos:station:wmo:42046:1,2009-12-02T10:00:00Z,27.8903,-94.0367,1003.78,11111222 
TABS,ioos:station:wmo:42046:1,2009-12-02T10:30:00Z,27.8903,-94.0367,1003.95,11111222 
TABS,ioos:station:wmo:42046:1,2009-12-02T11:00:00Z,27.8903,-94.0367,1004.28,11111222 
TABS,ioos:station:wmo:42046:1,2009-12-02T11:30:00Z,27.8903,-94.0367,1004.26,11111222 
TABS,ioos:station:wmo:42046:1,2009-12-02T12:00:00Z,27.8903,-94.0367,1004.73,11111222 
TABS,ioos:station:wmo:42046:1,2009-12-02T12:30:00Z,27.8903,-94.0367,1004.68,11111222 
TABS,ioos:station:wmo:42046:1,2009-12-02T13:00:00Z,27.8903,-94.0367,1005.24,11111222 
TABS,ioos:station:wmo:42046:1,2009-12-02T13:30:00Z,27.8903,-94.0367,1006.15,11111222 
TABS,ioos:station:wmo:42046:1,2009-12-02T14:00:00Z,27.8903,-94.0367,1006.56,11111222 
TABS,ioos:station:wmo:42046:1,2009-12-02T14:30:00Z,27.8903,-94.0367,1007.51,11111222 
TABS,ioos:station:wmo:42046:1,2009-12-02T15:00:00Z,27.8903,-94.0367,1008.01,11111222 
TABS,ioos:station:wmo:42046:1,2009-12-02T15:30:00Z,27.8903,-94.0367,1008.3,11111222 
TABS,ioos:station:wmo:42046:1,2009-12-02T16:00:00Z,27.8903,-94.0367,1008.67,11111222 
TABS,ioos:station:wmo:42046:1,2009-12-02T16:30:00Z,27.8903,-94.0367,1008.86,11111222 
TABS,ioos:station:wmo:42046:1,2009-12-02T17:00:00Z,27.8903,-94.0367,1008.22,11111222 
TABS,ioos:station:wmo:42046:1,2009-12-02T17:30:00Z,27.8903,-94.0367,1007.89,11111222 
TABS,ioos:station:wmo:42046:1,2009-12-02T18:00:00Z,27.8903,-94.0367,1007.83,11111222 
TABS,ioos:station:wmo:42046:1,2009-12-02T18:30:00Z,27.8903,-94.0367,1007.75,11111222 
TABS,ioos:station:wmo:42046:1,2009-12-02T19:00:00Z,27.8903,-94.0367,1007.18,11111222 
TABS,ioos:station:wmo:42046:1,2009-12-02T19:30:00Z,27.8903,-94.0367,1007.39,11111222 
TABS,ioos:station:wmo:42046:1,2009-12-02T20:00:00Z,27.8903,-94.0367,1007.66,11111222 
TABS,ioos:station:wmo:42046:1,2009-12-02T20:30:00Z,27.8903,-94.0367,1007.78,11111222 
TABS,ioos:station:wmo:42046:1,2009-12-02T21:00:00Z,27.8903,-94.0367,1008.41,11111222 
TABS,ioos:station:wmo:42046:1,2009-12-02T21:30:00Z,27.8903,-94.0367,1009.31,11111222 
TABS,ioos:station:wmo:42046:1,2009-12-02T22:00:00Z,27.8903,-94.0367,1009.27,11111222 
TABS,ioos:station:wmo:42046:1,2009-12-02T22:30:00Z,27.8903,-94.0367,1010.09,11111222 
TABS,ioos:station:wmo:42046:1,2009-12-02T23:00:00Z,27.8903,-94.0367,1010.24,11111222 
TABS,ioos:station:wmo:42046:1,2009-12-02T23:30:00Z,27.8903,-94.0367,1011.15,11111222 
TABS,ioos:station:wmo:42046:1,2009-12-03T00:00:00Z,27.8903,-94.0367,1011.96,11111222 
TABS,ioos:station:wmo:42046:1,2009-12-03T00:30:00Z,27.8903,-94.0367,1012.34,11111222 
TABS,ioos:station:wmo:42046:1,2009-12-03T01:00:00Z,27.8903,-94.0367,1012.96,11111222 
TABS,ioos:station:wmo:42046:1,2009-12-03T01:30:00Z,27.8903,-94.0367,1013.45,11111222 
TABS,ioos:station:wmo:42046:1,2009-12-03T02:00:00Z,27.8903,-94.0367,1014.39,11111222 
TABS,ioos:station:wmo:42046:1,2009-12-03T02:30:00Z,27.8903,-94.0367,1014.53,11111222 
TABS,ioos:station:wmo:42046:1,2009-12-03T03:00:00Z,27.8903,-94.0367,1014.74,11111222 
TABS,ioos:station:wmo:42046:1,2009-12-03T03:30:00Z,27.8903,-94.0367,1015.48,11111222 
TABS,ioos:station:wmo:42046:1,2009-12-03T04:00:00Z,27.8903,-94.0367,1015.88,11111222 
TABS,ioos:station:wmo:42046:1,2009-12-03T04:30:00Z,27.8903,-94.0367,1015.59,11111222 
TABS,ioos:station:wmo:42046:1,2009-12-03T05:00:00Z,27.8903,-94.0367,1015.74,11111222 
TABS,ioos:station:wmo:42046:1,2009-12-03T05:30:00Z,27.8903,-94.0367,1015.69,11111222 
TABS,ioos:station:wmo:42046:1,2009-12-03T06:00:00Z,27.8903,-94.0367,1015.55,11111222 
TABS,ioos:station:wmo:42046:1,2009-12-03T06:30:00Z,27.8903,-94.0367,1015.52,11111222 
TABS,ioos:station:wmo:42046:1,2009-12-03T07:00:00Z,27.8903,-94.0367,1015.93,11111222 
TABS,ioos:station:wmo:42046:1,2009-12-03T07:30:00Z,27.8903,-94.0367,1015.94,11111222 
TABS,ioos:station:wmo:42046:1,2009-12-03T08:00:00Z,27.8903,-94.0367,1016.2,11111222 
TABS,ioos:station:wmo:42046:1,2009-12-03T08:30:00Z,27.8903,-94.0367,1016.54,11111222 
TABS,ioos:station:wmo:42046:1,2009-12-03T09:00:00Z,27.8903,-94.0367,1016.85,11111222 
TABS,ioos:station:wmo:42046:1,2009-12-03T09:30:00Z,27.8903,-94.0367,1016.99,11111222 
TABS,ioos:station:wmo:42046:1,2009-12-03T10:00:00Z,27.8903,-94.0367,1017.04,11111222 
TABS,ioos:station:wmo:42046:1,2009-12-03T10:30:00Z,27.8903,-94.0367,1017.21,11111222 
TABS,ioos:station:wmo:42046:1,2009-12-03T11:00:00Z,27.8903,-94.0367,1017.33,11111222 
TABS,ioos:station:wmo:42046:1,2009-12-03T11:30:00Z,27.8903,-94.0367,1017.82,11111222 
TABS,ioos:station:wmo:42046:1,2009-12-03T12:00:00Z,27.8903,-94.0367,1018.29,11111222 
TABS,ioos:station:wmo:42046:1,2009-12-03T12:30:00Z,27.8903,-94.0367,1018.33,11111222 
TABS,ioos:station:wmo:42046:1,2009-12-03T13:00:00Z,27.8903,-94.0367,1018.6,11111222 
TABS,ioos:station:wmo:42046:1,2009-12-03T13:30:00Z,27.8903,-94.0367,1019.25,11111222 
TABS,ioos:station:wmo:42046:1,2009-12-03T14:00:00Z,27.8903,-94.0367,1019.73,11111222 
TABS,ioos:station:wmo:42046:1,2009-12-03T14:30:00Z,27.8903,-94.0367,1020.15,11111222 
TABS,ioos:station:wmo:42046:1,2009-12-03T15:00:00Z,27.8903,-94.0367,1020.9,11111222 
TABS,ioos:station:wmo:42046:1,2009-12-03T15:30:00Z,27.8903,-94.0367,1021.25,11111222 
TABS,ioos:station:wmo:42046:1,2009-12-03T16:00:00Z,27.8903,-94.0367,1021.13,11111222 
TABS,ioos:station:wmo:42046:1,2009-12-03T16:30:00Z,27.8903,-94.0367,1021.11,11111222 
TABS,ioos:station:wmo:42046:1,2009-12-03T17:00:00Z,27.8903,-94.0367,1020.77,11111222 
TABS,ioos:station:wmo:42046:1,2009-12-03T17:30:00Z,27.8903,-94.0367,1020.45,11111222 
TABS,ioos:station:wmo:42046:1,2009-12-03T18:00:00Z,27.8903,-94.0367,1019.95,11111222 
TABS,ioos:station:wmo:42046:1,2009-12-03T18:30:00Z,27.8903,-94.0367,1018.95,11111222 
TABS,ioos:station:wmo:42046:1,2009-12-03T19:00:00Z,27.8903,-94.0367,1018.82,11111222 
TABS,ioos:station:wmo:42046:1,2009-12-03T19:30:00Z,27.8903,-94.0367,1019.24,11111222 
TABS,ioos:station:wmo:42046:1,2009-12-03T20:00:00Z,27.8903,-94.0367,1019.12,11111222 
TABS,ioos:station:wmo:42046:1,2009-12-03T20:30:00Z,27.8903,-94.0367,1018.92,11111222 
TABS,ioos:station:wmo:42046:1,2009-12-03T21:00:00Z,27.8903,-94.0367,1018.93,11111222 
TABS,ioos:station:wmo:42046:1,2009-12-03T21:30:00Z,27.8903,-94.0367,1019.15,11111222 
TABS,ioos:station:wmo:42046:1,2009-12-03T22:00:00Z,27.8903,-94.0367,1019.03,11111222 
TABS,ioos:station:wmo:42046:1,2009-12-03T22:30:00Z,27.8903,-94.0367,1019.25,11111222 
TABS,ioos:station:wmo:42046:1,2009-12-03T23:00:00Z,27.8903,-94.0367,1019.45,11111222 
TABS,ioos:station:wmo:42046:1,2009-12-03T23:30:00Z,27.8903,-94.0367,1019.74,11111222 
TABS,ioos:station:wmo:42046:1,2009-12-04T00:00:00Z,27.8903,-94.0367,1020.13,11111222 
TABS,ioos:station:wmo:42046:1,2009-12-04T00:30:00Z,27.8903,-94.0367,1020.53,11111222 
TABS,ioos:station:wmo:42046:1,2009-12-04T01:00:00Z,27.8903,-94.0367,1020.38,11111222 
TABS,ioos:station:wmo:42046:1,2009-12-04T01:30:00Z,27.8903,-94.0367,1020.77,11111222 
TABS,ioos:station:wmo:42046:1,2009-12-04T02:00:00Z,27.8903,-94.0367,1020.7,11111222 
TABS,ioos:station:wmo:42046:1,2009-12-04T02:30:00Z,27.8903,-94.0367,1020.87,11111222 
TABS,ioos:station:wmo:42046:1,2009-12-04T03:00:00Z,27.8903,-94.0367,1020.65,11111222 
TABS,ioos:station:wmo:42046:1,2009-12-04T03:30:00Z,27.8903,-94.0367,1020.8,11111222 
TABS,ioos:station:wmo:42046:1,2009-12-04T04:00:00Z,27.8903,-94.0367,1020.96,11111222 
TABS,ioos:station:wmo:42046:1,2009-12-04T04:30:00Z,27.8903,-94.0367,1021.06,11111222 
TABS,ioos:station:wmo:42046:1,2009-12-04T05:00:00Z,27.8903,-94.0367,1020.77,11111222 
TABS,ioos:station:wmo:42046:1,2009-12-04T05:30:00Z,27.8903,-94.0367,1020.75,11111222 
TABS,ioos:station:wmo:42046:1,2009-12-04T06:00:00Z,27.8903,-94.0367,1020.47,11111222 
TABS,ioos:station:wmo:42046:1,2009-12-04T06:30:00Z,27.8903,-94.0367,1020.35,11111222 
TABS,ioos:station:wmo:42046:1,2009-12-04T07:00:00Z,27.8903,-94.0367,1020.12,11111222 
TABS,ioos:station:wmo:42046:1,2009-12-04T07:30:00Z,27.8903,-94.0367,1019.85,11111222 
TABS,ioos:station:wmo:42046:1,2009-12-04T08:00:00Z,27.8903,-94.0367,1019.69,11111222 
TABS,ioos:station:wmo:42046:1,2009-12-04T08:30:00Z,27.8903,-94.0367,1019.6,11111222 
TABS,ioos:station:wmo:42046:1,2009-12-04T09:00:00Z,27.8903,-94.0367,1019.49,11111222 
TABS,ioos:station:wmo:42046:1,2009-12-04T09:30:00Z,27.8903,-94.0367,1019.41,11111222 
TABS,ioos:station:wmo:42046:1,2009-12-04T10:00:00Z,27.8903,-94.0367,1019.01,11111222 
TABS,ioos:station:wmo:42046:1,2009-12-04T10:30:00Z,27.8903,-94.0367,1018.57,11111222 
TABS,ioos:station:wmo:42046:1,2009-12-04T11:00:00Z,27.8903,-94.0367,1018.94,11111222 
TABS,ioos:station:wmo:42046:1,2009-12-04T11:30:00Z,27.8903,-94.0367,1018.92,11111222 
TABS,ioos:station:wmo:42046:1,2009-12-04T12:00:00Z,27.8903,-94.0367,1018.56,11111222 
TABS,ioos:station:wmo:42046:1,2009-12-04T12:30:00Z,27.8903,-94.0367,1018.45,11111222 
TABS,ioos:station:wmo:42046:1,2009-12-04T13:00:00Z,27.8903,-94.0367,1018.1,11111222 
TABS,ioos:station:wmo:42046:1,2009-12-04T13:30:00Z,27.8903,-94.0367,1018.02,11111222 
TABS,ioos:station:wmo:42046:1,2009-12-04T14:00:00Z,27.8903,-94.0367,1018.31,11111222 
TABS,ioos:station:wmo:42046:1,2009-12-04T14:30:00Z,27.8903,-94.0367,1019.2,11111222 
TABS,ioos:station:wmo:42046:1,2009-12-04T15:00:00Z,27.8903,-94.0367,1019.25,11111222 
TABS,ioos:station:wmo:42046:1,2009-12-04T15:30:00Z,27.8903,-94.0367,1019.28,11111222 
TABS,ioos:station:wmo:42046:1,2009-12-04T16:00:00Z,27.8903,-94.0367,1018.72,11111222 
TABS,ioos:station:wmo:42046:1,2009-12-04T16:30:00Z,27.8903,-94.0367,1018.78,11111222 
TABS,ioos:station:wmo:42046:1,2009-12-04T17:00:00Z,27.8903,-94.0367,1018.44,11111222 
TABS,ioos:station:wmo:42046:1,2009-12-04T17:30:00Z,27.8903,-94.0367,1016.87,11111222 
TABS,ioos:station:wmo:42046:1,2009-12-04T18:00:00Z,27.8903,-94.0367,1017.7,11111222 
TABS,ioos:station:wmo:42046:1,2009-12-04T18:30:00Z,27.8903,-94.0367,1017.94,11111222 
TABS,ioos:station:wmo:42046:1,2009-12-04T19:00:00Z,27.8903,-94.0367,1017.12,11111222 
TABS,ioos:station:wmo:42046:1,2009-12-04T19:30:00Z,27.8903,-94.0367,1017.82,11111222 
TABS,ioos:station:wmo:42046:1,2009-12-04T20:00:00Z,27.8903,-94.0367,1017.66,11111222 
TABS,ioos:station:wmo:42046:1,2009-12-04T20:30:00Z,27.8903,-94.0367,1018.21,11111222 
TABS,ioos:station:wmo:42046:1,2009-12-04T21:00:00Z,27.8903,-94.0367,1018.05,11111222 
TABS,ioos:station:wmo:42046:1,2009-12-04T21:30:00Z,27.8903,-94.0367,1018.95,11111222 
TABS,ioos:station:wmo:42046:1,2009-12-04T22:00:00Z,27.8903,-94.0367,1019.24,11111222 
TABS,ioos:station:wmo:42046:1,2009-12-04T22:30:00Z,27.8903,-94.0367,1019.91,11111222 
TABS,ioos:station:wmo:42046:1,2009-12-04T23:00:00Z,27.8903,-94.0367,1020.34,11111222 
TABS,ioos:station:wmo:42046:1,2009-12-04T23:30:00Z,27.8903,-94.0367,1020.79,11111222 
TABS,ioos:station:wmo:42046:1,2009-12-05T00:00:00Z,27.8903,-94.0367,1021.19,11111222 
TABS,ioos:station:wmo:42046:1,2009-12-05T00:30:00Z,27.8903,-94.0367,1021.45,11111222 
TABS,ioos:station:wmo:42046:1,2009-12-05T01:00:00Z,27.8903,-94.0367,1021.56,11111222 
TABS,ioos:station:wmo:42046:1,2009-12-05T01:30:00Z,27.8903,-94.0367,1022.17,11111222 
TABS,ioos:station:wmo:42046:1,2009-12-05T02:00:00Z,27.8903,-94.0367,1022.31,11111222 
TABS,ioos:station:wmo:42046:1,2009-12-05T02:30:00Z,27.8903,-94.0367,1022.63,11111222 
TABS,ioos:station:wmo:42046:1,2009-12-05T03:00:00Z,27.8903,-94.0367,1023.0,11111222 
TABS,ioos:station:wmo:42046:1,2009-12-05T03:30:00Z,27.8903,-94.0367,1023.5,11111222 
TABS,ioos:station:wmo:42046:1,2009-12-05T04:00:00Z,27.8903,-94.0367,1023.65,11111222 
TABS,ioos:station:wmo:42046:1,2009-12-05T04:30:00Z,27.8903,-94.0367,1023.94,11111222 
TABS,ioos:station:wmo:42046:1,2009-12-05T05:00:00Z,27.8903,-94.0367,1023.68,11111222 
TABS,ioos:station:wmo:42046:1,2009-12-05T05:30:00Z,27.8903,-94.0367,1023.82,11111222 
TABS,ioos:station:wmo:42046:1,2009-12-05T06:00:00Z,27.8903,-94.0367,1023.45,11111222 
TABS,ioos:station:wmo:42046:1,2009-12-05T06:30:00Z,27.8903,-94.0367,1023.63,11111222 
TABS,ioos:station:wmo:42046:1,2009-12-05T07:00:00Z,27.8903,-94.0367,1023.34,11111222 
TABS,ioos:station:wmo:42046:1,2009-12-05T07:30:00Z,27.8903,-94.0367,1023.75,11111222 
TABS,ioos:station:wmo:42046:1,2009-12-05T08:00:00Z,27.8903,-94.0367,1023.6,11111222 
TABS,ioos:station:wmo:42046:1,2009-12-05T08:30:00Z,27.8903,-94.0367,1023.37,11111222 
TABS,ioos:station:wmo:42046:1,2009-12-05T09:00:00Z,27.8903,-94.0367,1023.45,11111222 
TABS,ioos:station:wmo:42046:1,2009-12-05T09:30:00Z,27.8903,-94.0367,1023.85,11111222 
TABS,ioos:station:wmo:42046:1,2009-12-05T10:00:00Z,27.8903,-94.0367,1023.5,11111222 
TABS,ioos:station:wmo:42046:1,2009-12-05T10:30:00Z,27.8903,-94.0367,1023.63,11111222 
TABS,ioos:station:wmo:42046:1,2009-12-05T11:00:00Z,27.8903,-94.0367,1023.75,11111222 
TABS,ioos:station:wmo:42046:1,2009-12-05T11:30:00Z,27.8903,-94.0367,1023.94,11111222 
TABS,ioos:station:wmo:42046:1,2009-12-05T12:00:00Z,27.8903,-94.0367,1024.02,11111222 
TABS,ioos:station:wmo:42046:1,2009-12-05T12:30:00Z,27.8903,-94.0367,1024.33,11111222 
TABS,ioos:station:wmo:42046:1,2009-12-05T13:00:00Z,27.8903,-94.0367,1024.82,11111222 
TABS,ioos:station:wmo:42046:1,2009-12-05T13:30:00Z,27.8903,-94.0367,1024.88,11111222 
TABS,ioos:station:wmo:42046:1,2009-12-05T14:00:00Z,27.8903,-94.0367,1024.97,11111222 
TABS,ioos:station:wmo:42046:1,2009-12-05T14:30:00Z,27.8903,-94.0367,1025.01,11111222 
TABS,ioos:station:wmo:42046:1,2009-12-05T15:00:00Z,27.8903,-94.0367,1025.2,11111222 
TABS,ioos:station:wmo:42046:1,2009-12-05T15:30:00Z,27.8903,-94.0367,1025.3,11111222 
TABS,ioos:station:wmo:42046:1,2009-12-05T16:00:00Z,27.8903,-94.0367,1025.35,11111222 
TABS,ioos:station:wmo:42046:1,2009-12-05T16:30:00Z,27.8903,-94.0367,1025.3,11111222 
TABS,ioos:station:wmo:42046:1,2009-12-05T17:00:00Z,27.8903,-94.0367,1024.98,11111222 
TABS,ioos:station:wmo:42046:1,2009-12-05T17:30:00Z,27.8903,-94.0367,1024.49,11111222 
TABS,ioos:station:wmo:42046:1,2009-12-05T18:00:00Z,27.8903,-94.0367,1024.08,11111222 
TABS,ioos:station:wmo:42046:1,2009-12-05T18:30:00Z,27.8903,-94.0367,1023.47,11111222 
TABS,ioos:station:wmo:42046:1,2009-12-05T19:00:00Z,27.8903,-94.0367,1023.16,11111222 
TABS,ioos:station:wmo:42046:1,2009-12-05T19:30:00Z,27.8903,-94.0367,1022.81,11111222 
TABS,ioos:station:wmo:42046:1,2009-12-05T20:00:00Z,27.8903,-94.0367,1022.72,11111222 
TABS,ioos:station:wmo:42046:1,2009-12-05T20:30:00Z,27.8903,-94.0367,1022.44,11111222 
TABS,ioos:station:wmo:42046:1,2009-12-05T21:00:00Z,27.8903,-94.0367,1022.44,11111222 
TABS,ioos:station:wmo:42046:1,2009-12-05T21:30:00Z,27.8903,-94.0367,1022.33,11111222 
TABS,ioos:station:wmo:42046:1,2009-12-05T22:00:00Z,27.8903,-94.0367,1022.12,11111222 
TABS,ioos:station:wmo:42046:1,2009-12-05T22:30:00Z,27.8903,-94.0367,1021.88,11111222 
TABS,ioos:station:wmo:42046:1,2009-12-06T00:00:00Z,27.8903,-94.0367,1021.31,11111222 
TABS,ioos:station:wmo:42046:1,2009-12-06T00:30:00Z,27.8903,-94.0367,1021.33,11111222 
TABS,ioos:station:wmo:42046:1,2009-12-06T01:00:00Z,27.8903,-94.0367,1021.53,11111222 
TABS,ioos:station:wmo:42046:1,2009-12-06T01:30:00Z,27.8903,-94.0367,1021.57,11111222 
TABS,ioos:station:wmo:42046:1,2009-12-06T02:00:00Z,27.8903,-94.0367,1021.63,11111222 
TABS,ioos:station:wmo:42046:1,2009-12-06T02:30:00Z,27.8903,-94.0367,1021.37,11111222 
TABS,ioos:station:wmo:42046:1,2009-12-06T03:00:00Z,27.8903,-94.0367,1020.88,11111222 
TABS,ioos:station:wmo:42046:1,2009-12-06T03:30:00Z,27.8903,-94.0367,1020.56,11111222 
TABS,ioos:station:wmo:42046:1,2009-12-06T04:00:00Z,27.8903,-94.0367,1020.86,11111222 
TABS,ioos:station:wmo:42046:1,2009-12-06T04:30:00Z,27.8903,-94.0367,1020.72,11111222 
TABS,ioos:station:wmo:42046:1,2009-12-06T05:00:00Z,27.8903,-94.0367,1020.33,11111222 
TABS,ioos:station:wmo:42046:1,2009-12-06T05:30:00Z,27.8903,-94.0367,1020.09,11111222 
TABS,ioos:station:wmo:42046:1,2009-12-06T06:00:00Z,27.8903,-94.0367,1020.23,11111222 
TABS,ioos:station:wmo:42046:1,2009-12-06T06:30:00Z,27.8903,-94.0367,1019.99,11111222 
TABS,ioos:station:wmo:42046:1,2009-12-06T07:00:00Z,27.8903,-94.0367,1019.09,11111222 
TABS,ioos:station:wmo:42046:1,2009-12-06T07:30:00Z,27.8903,-94.0367,1018.33,11111222 
TABS,ioos:station:wmo:42046:1,2009-12-06T08:00:00Z,27.8903,-94.0367,1018.64,11111222 
TABS,ioos:station:wmo:42046:1,2009-12-06T08:30:00Z,27.8903,-94.0367,1018.22,11111222 
TABS,ioos:station:wmo:42046:1,2009-12-06T09:00:00Z,27.8903,-94.0367,1018.36,11111222 
TABS,ioos:station:wmo:42046:1,2009-12-06T09:30:00Z,27.8903,-94.0367,1018.11,11111222 
TABS,ioos:station:wmo:42046:1,2009-12-06T10:00:00Z,27.8903,-94.0367,1018.37,11111222 
TABS,ioos:station:wmo:42046:1,2009-12-06T10:30:00Z,27.8903,-94.0367,1017.97,11111222 
TABS,ioos:station:wmo:42046:1,2009-12-06T11:00:00Z,27.8903,-94.0367,1017.11,11111222 
TABS,ioos:station:wmo:42046:1,2009-12-06T11:30:00Z,27.8903,-94.0367,1017.08,11111222 
TABS,ioos:station:wmo:42046:1,2009-12-06T12:00:00Z,27.8903,-94.0367,1018.27,11111222 
TABS,ioos:station:wmo:42046:1,2009-12-06T12:30:00Z,27.8903,-94.0367,1018.46,11111222 
TABS,ioos:station:wmo:42046:1,2009-12-06T13:00:00Z,27.8903,-94.0367,1017.93,11111222 
TABS,ioos:station:wmo:42046:1,2009-12-06T13:30:00Z,27.8903,-94.0367,1017.81,11111222 
TABS,ioos:station:wmo:42046:1,2009-12-06T14:00:00Z,27.8903,-94.0367,1018.04,11111222 
TABS,ioos:station:wmo:42046:1,2009-12-06T14:30:00Z,27.8903,-94.0367,1018.21,11111222 
TABS,ioos:station:wmo:42046:1,2009-12-06T15:00:00Z,27.8903,-94.0367,1017.92,11111222 
TABS,ioos:station:wmo:42046:1,2009-12-06T15:30:00Z,27.8903,-94.0367,1017.5,11111222 
TABS,ioos:station:wmo:42046:1,2009-12-06T16:00:00Z,27.8903,-94.0367,1017.82,11111222 
TABS,ioos:station:wmo:42046:1,2009-12-06T16:30:00Z,27.8903,-94.0367,1017.71,11111222 
TABS,ioos:station:wmo:42046:1,2009-12-06T17:00:00Z,27.8903,-94.0367,1017.69,11111222 
TABS,ioos:station:wmo:42046:1,2009-12-06T17:30:00Z,27.8903,-94.0367,1016.99,11111222 
TABS,ioos:station:wmo:42046:1,2009-12-06T18:00:00Z,27.8903,-94.0367,1016.45,11111222 
TABS,ioos:station:wmo:42046:1,2009-12-06T18:30:00Z,27.8903,-94.0367,1016.2,11111222 
TABS,ioos:station:wmo:42046:1,2009-12-06T19:00:00Z,27.8903,-94.0367,1015.43,11111222 
TABS,ioos:station:wmo:42046:1,2009-12-06T19:30:00Z,27.8903,-94.0367,1015.2,11111222 